#timestamp,LO_Frequency,Hit,StdDev 
1523707215.9,286047001.1,N
1523707235.7,286047000.6,N
1523707255.5,286047000.1,N
1523707275.4,286047000.2,N
1523707295.2,286047000.6,N
1523707315.0,286047000.3,N
1523707315.9,286047000.3,N
1523707335.8,286047000.3,N
1523707355.6,286047000.1,N
1523707375.5,286047001.1,N
1523707395.3,286047000.2,N
1523707415.1,286047000.1,N
1523707435.9,286047000.2,N
1523707455.7,286047000.9,N
1523707475.5,286047000.3,N
1523707495.4,286047000.7,N
1523707515.2,286047000.3,N
1523707535.1,286047000.5,N
1523707536.0,286047000.5,N
1523707555.8,286046998.6,N
1523707575.6,286047000.8,N
1523707595.5,286047001.1,N
1523707615.3,286046998.2,N
1523707635.1,286046998.7,N
1523707655.9,286046998.5,N
1523707675.7,286047000.7,N
1523707695.6,286046998.4,N
1523707715.4,286047000.5,N
1523707735.2,286047000.3,N
1523707755.1,286047000.3,N
1523707756.0,286047000.3,N
1523707775.8,286047000.7,N
1523707795.7,286047001.2,N
1523707815.5,286046998.6,N
1523707835.3,286046996.9,Y
1523707855.2,286046996.5,P
1523707875.0,286046999.5,N
1523707875.9,286046999.5,N
1523707895.7,286046999.5,N
1523707915.6,286047001.0,N
1523707935.4,286047001.1,N
1523707955.3,286047000.6,N
1523707975.1,286046999.7,N
1523707976.0,286046999.7,N
1523707995.8,286047000.5,N
1523708015.7,286047000.2,N
1523708035.5,286047000.0,N
1523708055.3,286047000.4,N
1523708075.2,286046998.9,N
1523708095.0,286046997.1,N
1523708095.9,286046997.1,N
1523708115.8,286046995.6,Y
1523708135.6,286046995.3,P
1523708155.4,286046995.6,N
1523708175.3,286046996.3,N
1523708195.1,286046995.2,N
1523708215.9,286046998.0,N
1523708235.7,286046997.1,N
1523708255.5,286046999.3,N
1523708275.4,286046996.9,N
1523708295.2,286046996.9,N
1523708315.1,286046996.8,N
1523708316.0,286046996.8,N
1523708335.8,286046997.0,N
1523708355.6,286046996.8,N
1523708375.5,286046997.0,N
1523708395.3,286046995.0,Y
1523708415.1,286047001.1,P
1523708435.9,286046999.3,N
1523708455.7,286046999.2,N
1523708475.6,286046999.2,N
1523708495.4,286046996.6,N
1523708515.2,286046998.9,N
1523708535.1,286046998.6,N
1523708536.0,286046998.6,N
1523708555.8,286047001.1,N
1523708575.7,286046997.4,N
1523708595.5,286046997.0,N
1523708615.3,286047001.1,N
1523708635.2,286046998.6,N
1523708655.0,286047000.4,N
1523708655.9,286047000.4,N
1523708675.7,286046999.3,N
1523708695.6,286046999.5,N
1523708715.4,286046996.5,N
1523708735.3,286046999.5,N
1523708755.1,286046996.9,N
1523708756.0,286046996.9,N
1523708775.8,286046997.0,N
1523708795.7,286046997.0,N
1523708815.5,286046997.4,N
1523708835.4,286046995.3,Y
1523708855.2,286046997.7,P
1523708875.0,286046997.6,P
1523708875.9,286046997.6,P
1523708895.8,286046995.0,Y
1523708915.6,286046998.5,P
1523708935.4,286046998.8,P
1523708955.3,286046999.6,N
1523708975.1,286046997.5,Y
1523708995.9,286046999.3,P
1523709015.7,286047000.6,N
1523709035.5,286047002.4,N
1523709055.4,286047003.8,N
1523709075.2,286047001.6,N
1523709095.1,286047000.8,N
1523709096.0,286047000.8,N
1523709115.8,286047000.7,N
1523709135.6,286047001.2,N
1523709155.5,286047001.2,N
1523709175.3,286046998.1,N
1523709195.1,286046998.9,N
1523709215.9,286046999.2,N
1523709235.7,286046999.6,N
1523709255.6,286046997.2,N
1523709275.4,286046999.4,N
1523709295.2,286046996.6,N
1523709315.1,286046996.9,N
1523709316.0,286046996.9,N
1523709335.8,286046999.5,N
1523709355.6,286046999.0,N
1523709375.5,286046998.1,N
1523709395.3,286047000.9,N
1523709415.2,286046999.3,N
1523709435.9,286046999.3,N
1523709455.7,286046997.8,N
1523709475.6,286046995.4,N
1523709495.4,286046995.2,N
1523709515.2,286046995.5,N
1523709535.1,286046998.0,N
1523709536.0,286046998.0,N
1523709555.8,286046997.9,N
1523709575.7,286046995.0,N
1523709595.5,286046996.8,N
1523709615.3,286046996.7,N
1523709635.2,286046995.4,N
1523709655.0,286046999.2,N
1523709655.9,286046999.2,N
1523709675.8,286046999.0,N
1523709695.6,286046998.6,N
1523709715.4,286046999.0,N
1523709735.3,286046998.8,N
1523709755.1,286046999.1,N
1523709775.9,286046996.5,N
1523709795.7,286046996.9,N
1523709815.5,286046999.2,N
1523709835.4,286047000.8,N
1523709855.2,286046996.9,N
1523709875.0,286046998.9,N
1523709875.9,286046998.9,N
1523709895.8,286047000.7,N
1523709915.6,286047011.9,Y
1523709935.5,286047004.2,P
1523709955.3,286047001.6,N
1523709975.1,286047004.4,N
1523709995.9,286047002.6,N
1523710015.7,286047002.7,N
1523710035.5,286047002.5,N
1523710055.4,286047002.4,N
1523710075.2,286047002.3,N
1523710095.1,286047002.3,N
1523710096.0,286047002.3,N
1523710115.8,286047001.9,N
1523710135.6,286047002.2,N
1523710155.5,286047001.5,N
1523710175.3,286047004.3,Y
1523710195.1,286047002.4,P
1523710215.9,286047002.8,P
1523710235.7,286047002.5,P
1523710255.6,286047002.0,Y
1523710275.4,286047000.8,P
1523710295.2,286047000.9,N
1523710315.1,286047000.4,N
1523710316.0,286047000.4,N
1523710335.8,286047002.3,N
1523710355.7,286047002.1,N
1523710375.5,286047002.8,Y
1523710395.3,286046998.1,P
1523710415.2,286046998.7,N
1523710435.0,286046998.9,N
1523710435.9,286046998.9,N
1523710455.8,286046999.4,N
1523710475.6,286047001.1,N
1523710495.4,286046998.3,N
1523710515.3,286047000.5,N
1523710535.1,286046998.3,N
1523710555.9,286046999.4,N
1523710575.7,286046998.6,N
1523710595.5,286046998.8,N
1523710615.4,286046999.3,N
1523710635.2,286046999.1,N
1523710655.0,286046998.2,N
1523710655.9,286046998.2,N
1523710675.8,286046996.6,Y
1523710695.6,286047002.8,P
1523710715.5,286047002.6,N
1523710735.3,286047002.0,N
1523710755.1,286047002.2,N
1523710775.9,286047001.3,N
1523710795.7,286047001.4,N
